Date,TemperatureHighF,TemperatureAvgF,TemperatureLowF,DewpointHighF,DewpointAvgF,DewpointLowF,HumidityHigh,HumidityAvg,HumidityLow,PressureMaxIn,PressureMinIn,WindSpeedMaxMPH,WindSpeedAvgMPH,GustSpeedMaxMPH,PrecipitationSumIn
2013-9-1,83.4,73.2,65.3,72.0,68.6,64.4,98,87,63,29.79,29.72,14,4,14,0.22
2013-9-2,80.3,69.8,59.0,70.1,63.6,57.3,95,82,56,29.96,29.74,16,7,16,0.00
2013-9-3,75.0,64.6,54.1,59.1,56.2,52.1,96,76,53,30.08,29.96,12,4,12,0.00
2013-9-4,81.6,66.7,49.0,62.6,56.7,47.6,98,73,43,30.13,30.04,13,4,13,0.00
2013-9-5,80.3,66.2,56.3,65.4,58.2,49.7,96,77,52,30.21,30.10,14,5,14,0.00
2013-9-6,85.7,69.1,54.5,68.2,59.1,50.1,93,73,51,30.21,30.01,12,4,12,0.00
2013-9-7,87.6,74.1,60.5,68.0,64.0,59.1,97,73,45,30.02,29.88,17,5,17,0.00
2013-9-8,86.9,75.7,67.2,71.3,67.9,65.0,93,78,56,29.96,29.89,15,7,15,0.00
2013-9-9,95.8,80.1,64.9,76.0,70.2,63.3,97,75,47,29.94,29.81,18,8,18,0.00
2013-9-10,96.0,84.4,72.9,70.9,67.7,64.0,84,60,36,30.00,29.88,22,9,22,0.00
2013-9-11,92.9,80.9,72.6,71.3,69.1,66.2,90,69,46,30.03,29.94,20,9,20,0.07
2013-9-12,83.3,71.5,59.8,69.9,62.8,50.1,95,77,37,30.04,29.90,27,8,27,0.35
2013-9-13,68.0,58.0,45.2,57.2,49.1,41.8,94,74,46,30.14,30.04,22,9,22,0.00
2013-9-14,71.2,54.3,38.6,49.7,42.8,37.0,97,70,33,30.20,30.05,13,2,13,0.00
2013-9-15,69.6,58.5,46.2,58.6,52.1,43.6,96,81,53,30.12,29.97,18,5,18,0.08
2013-9-16,67.4,58.2,46.1,57.1,51.2,43.6,97,79,52,30.33,30.12,19,8,19,0.00
2013-9-17,73.3,58.3,43.0,55.6,50.3,41.6,97,77,50,30.33,30.11,14,5,14,0.01
2013-9-18,84.3,67.7,55.4,67.5,61.2,51.6,94,81,56,30.11,29.92,22,6,22,0.38
2013-9-19,91.0,76.2,66.6,74.0,69.3,64.8,97,81,50,29.98,29.79,20,11,20,0.05
2013-9-20,76.6,68.9,57.6,70.9,62.6,52.1,95,81,64,29.85,29.76,32,9,32,0.05
2013-9-21,68.6,58.2,46.6,54.1,49.6,43.1,94,75,48,29.94,29.80,20,8,20,0.00
2013-9-22,69.9,56.0,45.5,51.9,46.9,42.4,93,74,46,30.05,29.94,13,5,13,0.00
2013-9-23,72.5,56.0,40.5,50.7,45.8,38.7,96,72,40,30.11,30.01,13,4,13,0.00
2013-9-24,74.5,58.6,44.9,53.5,48.7,42.9,94,73,41,30.06,29.90,16,6,16,0.00
2013-9-25,77.9,60.2,47.6,54.4,50.2,45.7,96,73,39,29.95,29.88,15,5,15,0.00
2013-9-26,79.1,61.0,45.9,58.1,50.6,44.8,97,74,33,30.07,29.94,13,3,13,0.00
2013-9-27,82.7,63.1,46.6,58.1,50.0,44.1,96,67,33,30.16,30.05,17,4,17,0.01
2013-9-28,84.3,67.8,46.9,61.4,53.7,44.3,95,64,39,30.09,29.91,27,9,27,0.00
2013-9-29,72.1,60.3,43.5,63.2,52.6,41.6,94,78,49,30.03,29.92,24,8,24,0.19
2013-9-30,76.0,58.4,39.3,56.2,48.8,37.9,98,74,41,30.01,29.89,14,4,14,0.01